Regional Weather Roundup
Issued by NWS

Home | Current Version | Previous Version | Graphics & Text | Print | Product List | Glossary On
Versions: 1 2 3 4 5 6 7 8 9 10 11 12 13 14 15 16 17 18 19 20 21 22 23 24 25 26 27 28 29 30 31 32 33 34 35 36 37 38 39 40 41 42 43 44 45 46 47 48 49 50
000
ASUS43 KLOT 240708
RWRIL

ILLINOIS REGIONAL WEATHER ROUNDUP
NATIONAL WEATHER SERVICE CHICAGO/ROMEOVILLE IL
200 AM CDT MON APR 24 2017

NOTE: "FAIR" INDICATES FEW OR NO CLOUDS BELOW 12,000 FEET WITH NO
SIGNIFICANT WEATHER AND/OR OBSTRUCTIONS TO VISIBILITY.

* THESE STATIONS ARE NOT UNDER NWS QUALITY CONTROL. THEY ALSO MAY NOT
  REPORT WEATHER SUCH AS PRECIPITATION OR FOG.

ILZ001-002-007-009-015-016-024-240800-
NORTHWEST ILLINOIS

CITY           SKY/WX    TMP DP  RH WIND       PRES   REMARKS
MOLINE         CLEAR     46  38  73 CALM      29.98F
STERLING*      CLEAR     49  34  56 E3        30.00F
SAVANNA*       CLEAR     44  40  83 CALM      29.99S
$$

ILZ003-004-008-010-011-017-018-240800-
NORTH CENTRAL ILLINOIS

CITY           SKY/WX    TMP DP  RH WIND       PRES   REMARKS
ROCKFORD       PTCLDY    47  37  68 E3        30.03F
FREEPORT*      CLEAR     44  34  68 SE6       30.01F
ROCHELLE*      CLEAR     46  33  61 SE5       30.01F
DE KALB*       CLEAR     43  35  72 E8        30.02F
PERU*          CLEAR     46  32  57 E5        30.01F
$$

ILZ005-006-012>014-019>023-240800-
NORTHEAST ILLINOIS

CITY           SKY/WX    TMP DP  RH WIND       PRES   REMARKS
CHICAGO-OHARE  PTCLDY    42  38  85 NE6       30.02F
CHICAGO-MIDWAY PTCLDY    45  39  79 NE7       30.03F
AURORA         CLEAR     45  37  73 NE3       30.02F
LANSING*       CLEAR     43  42  97 CALM      30.03F
JOLIET*        CLEAR     43  34  72 CALM      30.02S
WAUKEGAN       CLEAR     36  32  85 CALM      30.03F
DUPAGE AIRPORT CLEAR     39  37  92 NE5       30.01F
KANKAKEE*      CLEAR     43  27  53 CALM      30.02F
WHEELING       CLEAR     41  39  93 CALM      30.04F
MORRIS*        CLEAR     49  30  49 CALM      30.01S
ROMEOVILLE*    CLEAR     43  37  78 NE6       30.02S
NORTHERLY ISL    N/A     42  40  92 N13         N/A
$$

LMZ740>746-240800-
SOUTHERN LAKE MICHIGAN

STATION/POSITION SKY/WX   TEMP    WIND        PRES    VSBY  WAVE
                          AIR SEA DIR/SP/G                  HT/PER
                          (F)     (DEG/KT/KT) (MB)    (MI)  (FT/S)
SOUTHERN BUOY              40 40  360/  8/ 10 1018.3          3/ 6
HARRISON CRIB              42     350/ 12/ 13   N/A
BURNHAM HARBOR             42      10/  7/ 12   N/A
CALUMET HARBOR             43     340/  8/ 11 1016.6F
BURNS HARBOR               46     360/  5/  6 1017.3F
MICHIGAN CITY              47     330/  7/  8   N/A
ST. JOSEPH                 50 51  330/  4/  6 1017.5          1
$$

ILZ025>027-034>036-040-047-049-050-058-095>099-240800-
WEST-CENTRAL ILLINOIS

CITY           SKY/WX    TMP DP  RH WIND       PRES   REMARKS
QUINCY         CLEAR     53  26  35 E6        29.98S
GALESBURG*     CLEAR     43  38  82 SE3       29.98F
MACOMB*        CLEAR     43  34  70 CALM      30.01S
JACKSONVILLE*  CLEAR     42  32  68 E6        29.98F
PITTSFIELD*    CLEAR     43  37  79 NW3       30.00S
$$

ILZ028>032-037-038-041>044-048-051>054-059>061-240800-
CENTRAL ILLINOIS

CITY           SKY/WX    TMP DP  RH WIND       PRES   REMARKS
PONTIAC        CLEAR     46  30  53 E6        30.01F
BLOOMINGTON    CLEAR     49  23  36 E6        30.01F
DECATUR        CLEAR     45  28  51 NE5       30.00F
PEORIA         CLEAR     50  28  42 E6        30.00F
LACON*         CLEAR     42  32  67 CALM      30.00S
LINCOLN*       CLEAR     47  30  51 CALM      29.99F
SPRINGFIELD    CLEAR     49  31  49 E6        29.99F
TAYLORVILLE    CLEAR     47  31  53 CALM      29.99F
$$

ILZ033-039-045-046-055>057-062-063-240800-
EAST-CENTRAL ILLINOIS

CITY           SKY/WX    TMP DP  RH WIND       PRES   REMARKS
CHAMPAIGN      CLEAR     52  26  36 NE9       30.00S
RANTOUL*       CLEAR     50  30  45 NE5       30.00F
MATTOON        CLEAR     46  33  60 N5        29.97F
PARIS*         CLEAR     44  34  67 CALM      29.99F
$$

ILZ079-100>102-240800-
SOUTHWEST ILLINOIS

CITY           SKY/WX    TMP DP  RH WIND       PRES   REMARKS
ALTON          CLEAR     45  34  66 CALM      29.98S
BELLEVILLE     CLEAR     46  35  67 NW6       29.95F
CAHOKIA*       CLEAR     42  38  85 CALM      29.97S
SPARTA*        CLEAR     48  34  58 N5        29.96F
$$

ILZ064>066-069>071-074>076-080>082-084>086-088>090-092>094-240800-
SOUTH-CENTRAL ILLINOIS

CITY           SKY/WX    TMP DP  RH WIND       PRES   REMARKS
CARBONDALE     CLEAR     45  40  82 NW3       29.94S
CAIRO*         CLEAR     50  42  74 NW5       29.90F
EFFINGHAM*     CLEAR     54  32  43 CALM      29.98F
MARION         CLEAR     43  43 100 CALM      29.94S
MT. VERNON     CLEAR     51  32  48 N6        29.95S
CENTRALIA*     CLEAR     51  35  55 CALM      29.95F
SALEM*         PTCLDY    55  31  40 NE5       29.96S
METROPOLIS*    CLEAR     48  44  84 NW3       29.90F
$$

ILZ067-068-072-073-078-083-087-091-240800-
SOUTHEAST ILLINOIS

CITY           SKY/WX    TMP DP  RH WIND       PRES   REMARKS
LAWRENCEVILLE  CLEAR     50  34  54 NE9       29.95F
FLORA*         CLEAR     52  34  50 N6        29.96F
FAIRFIELD*     CLEAR     52  33  48 N6        29.93F
HARRISBURG*    CLEAR     46  41  82 N5        29.92F
ROBINSON*      CLEAR     48  33  57 N7        29.97S
CARMI*         CLEAR     49  38  65 N7        29.91F
$$

ABBREVIATIONS USED IN REMARKS
   TC - TEMPERATURE IN CELSIUS
  WCI - WIND CHILL INDEX
   HX - HEAT INDEX
  VSB - VISIBILITY
$$




USA.gov is the U.S. government's official web portal to all federal, state and local government web resources and services.